Location: Lake Lucerne
(45.5315°N, 88.8489°W)
Time: 07:24:38
(UTC-06:00)

OTV 5 (USA 277) - Visible Passes

Search period start: 17 February 2019 00:00
Search period end: 27 February 2019 00:00
Orbit: 342 x 346 km, 54.5° (Epoch: 09 February)

Date Brightness Start Highest point End Pass type
(mag) Time Alt. Az. Time Alt. Az. Time Alt. Az.
23 Feb ? 18:42:08 10° S 18:44:16 19° SE 18:44:16 19° SE visible
24 Feb ? 19:04:54 10° SW 19:07:44 59° SE 19:07:46 59° SE visible
25 Feb ? 19:28:36 10° WSW 19:31:07 45° NW 19:31:07 45° NW visible
26 Feb ? 18:17:20 10° SW 18:20:10 56° SE 18:22:54 11° ENE visible
26 Feb ? 19:52:50 10° WNW 19:54:22 20° NW 19:54:22 20° NW visible
